This demonstration page uses our WeatherBlox Daily Observations layout. Learn more.

Left ArrowRight Arrow

39.29038, -76.61219

Hourly Observations for October 19, 2016

Temp ( °F °C ) Dew Point ( °F °C ) Humidity (%) Winds ( mph kmh ) Pressure ( in mb ) Visibility ( mi km ) Precip ( " mm )
12:54 am 00:54 undefined 70 21.1 62 16.7 76 76 undefined N/A 29.91 1013 N/A 0.00 0.00
1:54 am 01:54 undefined 70 21.1 62 16.7 76 76 undefined N/A 29.93 1013 N/A 0.00 0.00
2:54 am 02:54 undefined 70 21.1 62 16.7 76 76 undefined N/A 29.92 1013 N/A 0.00 0.00
3:54 am 03:54 undefined 69 20.6 62 16.7 78 78 undefined N/A 29.92 1013 N/A 0.00 0.00
4:54 am 04:54 undefined 69 20.6 62 16.7 78 78 undefined N/A 29.92 1013 N/A 0.00 0.00
5:54 am 05:54 undefined 68 20 61 16.1 78 78 undefined N/A 29.94 1014 N/A 0.00 0.00
6:54 am 06:54 undefined 68 20 62 16.7 81 81 undefined N/A 29.96 1015 N/A 0.00 0.00
7:54 am 07:54 undefined 69 20.6 62 16.7 78 78 undefined N/A 29.98 1015 N/A 0.00 0.00
8:54 am 08:54 undefined 72 22.2 62 16.7 71 71 undefined N/A 30.00 1016 N/A 0.00 0.00
9:54 am 09:54 undefined 75 23.9 61 16.1 62 62 undefined N/A 30.02 1017 N/A 0.00 0.00
10:54 am 10:54 undefined 79 26.1 63 17.2 58 58 undefined N/A 30.02 1017 N/A 0.00 0.00
11:54 am 11:54 undefined 82 27.8 62 16.7 51 51 undefined N/A 30.02 1017 N/A 0.00 0.00
12:54 pm 12:54 undefined 84 28.9 64 17.8 51 51 undefined N/A 30.01 1016 N/A 0.00 0.00
1:54 pm 13:54 undefined 84 28.9 62 16.7 48 48 undefined N/A 29.99 1016 N/A 0.00 0.00
2:54 pm 14:54 undefined 86 30 63 17.2 46 46 undefined N/A 29.98 1015 N/A 0.00 0.00
3:54 pm 15:54 undefined 86 30 62 16.7 45 45 undefined N/A 29.98 1015 N/A 0.00 0.00
4:54 pm 16:54 undefined 83 28.3 64 17.8 53 53 undefined N/A 29.99 1016 N/A 0.00 0.00
5:54 pm 17:54 undefined 80 26.7 66 18.9 62 62 undefined N/A 30.00 1016 N/A 0.00 0.00
6:54 pm 18:54 undefined 77 25 66 18.9 69 69 undefined N/A 30.02 1017 N/A 0.00 0.00
7:54 pm 19:54 undefined 76 24.4 67 19.4 74 74 undefined N/A 30.03 1017 N/A 0.00 0.00
8:54 pm 20:54 undefined 76 24.4 66 18.9 72 72 undefined N/A 30.04 1017 N/A 0.00 0.00
9:54 pm 21:54 undefined 74 23.3 66 18.9 76 76 undefined N/A 30.07 1018 N/A 0.00 0.00
10:54 pm 22:54 undefined 74 23.3 66 18.9 76 76 undefined N/A 30.08 1019 N/A 0.00 0.00
11:54 pm 23:54 undefined 75 23.9 64 17.8 69 69 undefined N/A 30.09 1019 N/A 0.00 0.00

Powered by AerisWeather